EST,Max TemperatureF,Mean TemperatureF,Min TemperatureF,Max Dew PointF,MeanDew PointF,Min DewpointF,Max Humidity, Mean Humidity, Min Humidity, Max Sea Level PressureIn, Mean Sea Level PressureIn, Min Sea Level PressureIn, Max VisibilityMiles, Mean VisibilityMiles, Min VisibilityMiles, Max Wind SpeedMPH, Mean Wind SpeedMPH, Max Gust SpeedMPH,PrecipitationIn, CloudCover, Events, WindDirDegrees
2012-12-1,58,42,27,34,30,24,89,70,38,30.43,30.36,30.31,10,10,10,4,0,,0.00,1,,108
2012-12-2,65,47,29,47,38,26,90,69,44,30.38,30.26,30.16,10,9,5,16,3,24,0.00,2,Rain,198
2012-12-3,72,60,45,53,49,43,92,71,48,30.28,30.24,30.20,10,10,4,8,2,,0.00,2,,188
2012-12-4,71,55,39,51,45,38,95,70,42,30.27,30.19,30.08,10,8,1,14,3,16,0.00,3,,205
2012-12-5,62,49,35,49,33,19,79,49,19,30.29,30.17,30.06,10,10,10,13,6,17,0.00,2,Rain,336
2012-12-6,47,38,29,29,27,24,85,60,45,30.36,30.26,30.19,10,10,10,9,3,,0.00,2,,177
2012-12-7,60,50,41,49,40,28,92,71,56,30.18,30.07,29.97,10,10,7,10,5,,0.00,5,Rain,198
2012-12-8,69,55,41,51,47,40,95,75,48,30.03,29.95,29.90,10,8,0,15,4,17,0.00,3,Fog,195
2012-12-9,54,50,47,51,50,45,94,91,79,30.16,30.07,29.96,10,4,2,8,1,,0.07,8,Rain,8
2012-12-10,66,56,46,56,51,44,96,85,68,29.96,29.74,29.63,10,8,0,15,3,18,0.00,5,Fog-Rain,210
2012-12-11,51,46,37,44,33,26,91,67,46,30.22,29.99,29.71,10,10,10,12,5,17,0.04,5,Rain,4
2012-12-12,43,38,32,30,28,26,85,68,52,30.42,30.34,30.22,10,10,10,7,3,,0.00,2,,14
2012-12-13,45,34,22,27,24,20,90,71,39,30.47,30.40,30.34,10,9,5,6,1,,0.00,0,,21
2012-12-14,58,38,17,29,21,13,88,64,22,30.34,30.28,30.22,10,9,7,7,1,,0.00,0,,179
2012-12-15,55,41,27,38,27,23,86,61,31,30.27,30.18,30.08,10,10,10,9,2,,0.01,2,Rain,165
2012-12-16,51,46,41,45,42,36,93,83,72,30.08,29.94,29.82,10,9,3,9,3,,0.04,6,Rain,176
2012-12-17,55,48,40,50,47,39,96,89,75,29.85,29.75,29.58,10,8,0,9,2,,0.02,6,Fog-Rain,181
2012-12-18,56,47,38,46,37,30,93,69,45,29.84,29.70,29.58,10,10,10,15,5,23,0.00,2,,233
2012-12-19,59,44,29,36,30,26,85,61,33,30.17,29.97,29.83,10,10,10,12,3,17,0.00,0,,356
2012-12-20,45,38,30,41,33,27,93,81,61,30.19,29.95,29.43,10,8,3,13,2,20,0.28,4,Rain,207
2012-12-21,44,38,33,42,24,16,95,58,43,29.66,29.50,29.38,10,9,2,18,9,29,0.01,7,,259
2012-12-22,45,38,30,24,16,11,63,44,27,30.05,29.89,29.66,10,10,10,22,10,32,0.00,3,,284
2012-12-23,54,40,26,25,18,12,69,44,27,30.06,29.99,29.90,10,10,10,17,6,21,0.00,0,,210
2012-12-24,35,30,24,34,30,21,95,88,67,30.05,29.95,29.88,10,5,1,4,0,,0.18,6,Rain-Snow,327
2012-12-25,46,38,31,42,34,31,99,88,72,30.20,30.07,29.89,10,5,0,8,2,,0.00,8,Fog,31
2012-12-26,38,34,31,33,31,30,95,90,79,30.19,29.82,29.53,10,5,0,15,4,,0.95,8,Snow,14
2012-12-27,40,34,28,31,25,22,96,69,51,30.06,29.82,29.52,10,9,2,16,3,21,0.00,4,,294
2012-12-28,39,32,25,30,25,21,89,78,57,30.14,30.07,29.99,10,10,7,4,0,,0.00,1,,184
2012-12-29,47,40,33,34,29,24,91,71,52,29.98,29.76,29.57,10,9,1,17,5,26,0.01,7,Rain-Snow,253
2012-12-30,40,34,27,23,17,14,67,50,35,30.32,30.21,29.89,10,10,10,21,8,29,0.00,2,,302
2012-12-31,44,35,27,21,17,13,69,47,32,30.31,30.17,30.01,10,10,10,12,3,10,0.00,2,,192